Temperature
19 19 19 19 19 19 19 18 18 18 17 17 17 17 16 16 16 16 16 16 16 15 15 15 15 15 15 15 15 15 15 15 15 15 14 14 14 14 14 14 14 14 14
19 19 19 19 19 19 19 18 18 18 18 17 17 17 16 16 16 16 16 16 15 15 15 15 15 15 15 15 14 14 14 14 14 14 14 14 14 14 14 14 14 14 14
19 19 19 19 19 19 19 18 18 18 18 17 17 17 16 16 16 16 16 16 15 15 15 15 15 15 15 14 14 14 14 14 14 14 14 14 14 14 14 14 14 14 14
19 19 19 19 19 19 18 18 18 18 18 17 17 17 17 16 16 16 16 16 15 15 15 15 15 15 15 14 14 14 14 14 14 14 14 14 14 14 13 13 13 13 13
19 19 19 19 19 18 18 18 18 18 17 17 17 17 17 17 16 16 16 15 15 15 15 15 15 15 15 14 14 14 14 14 14 14 14 14 14 14 13 13 13 13 13
19 19 19 19 18 18 18 18 18 18 17 17 17 17 17 16 16 16 16 16 15 15 15 15 15 15 14 14 14 14 14 14 14 14 14 14 14 14 13 13 13 13 13
18 18 18 18 18 18 18 17 17 17 17 17 17 16 16 16 16 16 16 16 15 15 15 15 15 14 14 14 14 14 14 14 14 14 14 14 13 13 13 13 13 13 13
18 18 18 18 18 18 18 17 17 17 17 16 16 16 16 16 16 16 16 15 15 15 15 15 14 14 14 14 14 14 14 14 13 13 13 13 13 13 13 13 13 13 12
18 18 18 18 18 18 17 17 17 17 16 16 16 16 16 16 15 15 15 15 15 15 15 15 14 14 14 14 14 14 14 14 13 13 13 13 13 13 13 13 13 13 12
18 18 18 18 18 18 17 17 17 17 16 16 16 16 16 15 15 15 15 15 15 15 15 14 14 14 14 14 14 14 13 13 13 13 13 13 13 13 13 13 13 13 13
18 18 18 18 17 17 17 17 16 16 16 16 16 15 15 15 15 15 15 15 15 14 14 14 14 14 14 14 14 13 13 13 13 13 13 13 13 13 13 13 12 12 12
18 18 18 17 17 17 16 16 16 16 16 15 15 15 15 15 15 15 15 14 14 14 14 14 14 14 14 13 13 13 13 13 13 13 13 13 13 13 12 12 12 12 12
18 17 17 17 17 16 16 16 15 15 15 15 15 15 15 15 14 14 14 14 14 14 14 14 13 13 13 13 13 13 13 13 12 12 12 12 12 12 12 12 12 12 12
17 17 17 17 16 16 16 15 15 15 15 14 14 14 14 14 14 14 14 14 14 13 13 13 13 13 13 13 13 13 12 12 12 12 12 12 12 12 12 12 12 12 12
17 17 17 16 16 16 15 15 15 14 14 14 14 14 14 14 13 13 13 13 13 13 13 13 13 13 12 12 12 12 12 12 12 12 12 12 11 11 11 11 11 11 11
16 16 16 16 16 16 15 15 14 14 14 14 14 13 13 13 13 13 13 13 13 13 12 12 12 12 12 12 12 12 12 12 11 11 11 11 11 11 11 11 11 11 11
16 16 16 16 16 15 15 15 14 14 14 13 13 13 13 13 13 13 12 12 12 12 12 12 12 12 12 12 12 11 11 11 11 11 11 11 11 11 11 11 11 11 11
16 16 16 16 15 15 15 14 14 14 13 13 13 13 12 12 12 12 12 12 12 12 12 11 11 11 11 11 11 11 11 11 11 10 10 10 10 10 10 10 10 10 10
16 16 16 15 15 15 14 14 14 13 13 13 13 12 12 12 12 12 12 12 12 11 11 11 11 11 11 11 11 11 10 10 10 10 10 10 10 10 10 10 10 10 10
16 15 15 15 15 14 14 14 13 13 13 13 12 12 12 12 12 12 12 11 11 11 11 11 10 10 10 10 10 10 10 10 10 10 10 10 10 10 10 10 10 10 10
15 15 15 14 14 14 14 13 13 13 13 12 12 12 12 11 11 11 11 11 11 11 10 10 10 10 10 10 10 10 9 9 10 9 9 9 9 9 9 9 9 9 9
14 14 14 14 14 13 13 13 13 12 12 12 12 12 11 11 11 11 11 11 10 10 10 10 10 9 9 9 9 9 9 9 9 9 9 9 9 9 9 9 9 9 9
14 13 13 13 13 13 13 13 12 12 12 12 11 11 11 11 11 11 11 10 10 10 9 9 9 9 9 9 9 9 9 9 9 9 9 9 8 8 9 9 9 9 8
13 13 13 13 12 12 12 12 12 12 11 11 11 11 11 10 10 10 10 10 9 9 9 9 9 9 9 9 9 8 8 8 8 8 8 8 8 8 8 8 8 8 8
13 12 12 12 12 12 12 12 11 11 11 11 11 10 10 10 10 9 9 9 9 9 9 9 8 8 8 8 8 8 8 8 8 8 8 8 8 8 8 8 8 7 7
12 12 12 11 11 11 11 11 11 11 11 11 10 10 10 9 9 9 9 8 8 8 8 8 8 8 8 8 8 8 8 8 8 8 8 8 7 7 7 7 7 7 7
Wind_Speed
6 6 6 7 7 6 6 5 6 6 6 4 4 3 2 1 1 1 3 5 5 6 5 4 3 3 3 3 3 3 3 2 2 4 3 4 4 3 2 2 2 2 3
5 5 6 6 7 7 6 6 6 6 6 5 4 3 3 2 2 1 1 3 4 5 6 5 3 3 3 3 3 3 3 1 2 3 3 2 3 3 3 2 2 2 2
9 8 6 6 6 6 6 7 6 6 5 5 3 3 3 3 1 0 1 1 3 4 5 5 4 4 3 3 3 3 4 2 1 2 3 3 2 1 3 2 2 2 2
7 7 7 6 7 7 7 7 7 6 5 5 5 5 4 3 4 3 2 2 2 4 4 4 4 4 3 3 3 3 3 3 2 0 1 2 4 2 0 2 2 2 1
8 8 8 8 7 7 7 6 6 6 5 5 6 6 4 4 2 2 2 2 2 2 3 4 4 4 4 4 3 3 3 3 3 2 2 2 1 2 3 1 2 2 2
7 7 6 6 5 4 5 5 6 5 5 5 5 5 5 4 3 3 3 3 2 2 2 3 3 4 4 4 4 3 4 3 3 2 3 3 2 2 2 2 2 1 2
8 7 6 6 5 5 5 5 6 4 4 4 4 5 5 6 6 5 5 4 3 2 3 3 3 3 3 4 3 3 3 4 3 3 2 3 3 3 3 3 2 1 1
8 8 8 8 7 6 5 5 5 4 3 4 4 4 5 4 4 4 4 5 4 4 4 4 3 3 3 3 3 3 3 3 3 3 3 2 2 3 3 4 4 1 1
8 8 7 7 6 6 6 6 6 4 4 4 4 3 3 4 4 4 4 3 3 4 4 4 4 3 3 3 3 2 3 2 3 3 3 2 2 2 3 3 4 4 2
7 8 7 7 6 6 6 5 5 5 4 4 4 3 3 3 3 4 3 3 3 3 4 4 4 3 3 3 3 2 2 3 2 2 2 2 1 2 2 3 3 3 4
8 8 7 6 5 5 5 4 4 3 3 3 3 3 3 2 2 2 3 4 3 4 5 5 4 4 3 3 3 3 3 3 2 1 2 2 1 1 2 2 3 3 3
7 7 7 6 5 5 4 4 4 4 4 4 3 3 3 3 2 2 3 3 3 3 4 4 4 4 4 3 3 3 3 3 2 1 1 2 1 1 2 2 3 3 3
6 5 5 6 6 5 4 4 4 4 3 3 3 2 2 3 3 3 3 2 2 3 3 4 4 4 4 4 4 4 3 3 3 2 2 2 1 2 1 2 2 3 3
6 5 5 5 5 5 5 4 3 3 3 3 3 2 3 3 3 2 2 2 3 3 3 4 4 5 5 5 4 4 4 3 2 2 2 2 2 3 3 2 3 2 2
5 6 6 5 5 5 5 4 3 3 3 3 3 3 2 2 2 2 2 1 2 3 3 3 3 3 4 4 5 4 4 3 2 2 2 3 3 3 2 2 2 3 2
5 5 5 5 6 5 5 5 4 4 4 4 3 3 2 1 2 2 2 2 1 1 2 3 4 3 3 3 5 5 4 3 3 2 2 3 3 2 3 3 3 3 4
6 6 6 6 6 6 6 6 5 4 4 4 3 3 2 2 2 2 3 3 2 2 2 2 4 4 3 4 5 6 4 3 3 3 3 2 2 2 2 3 2 3 4
5 5 5 5 5 5 5 5 5 5 5 4 3 3 3 2 2 2 2 2 2 2 2 2 3 3 3 4 5 5 4 3 3 3 3 3 3 2 2 2 2 2 3
5 5 4 4 4 4 5 5 5 4 4 4 4 4 4 3 3 3 3 2 3 2 2 2 3 3 3 3 4 4 3 2 3 3 3 3 3 3 2 2 2 2 3
2 3 3 3 3 3 5 6 5 5 5 5 5 4 4 4 4 3 2 2 3 3 3 2 2 3 3 3 4 5 3 2 2 2 2 3 3 3 2 3 3 3 3
2 2 3 3 3 3 5 5 5 5 5 4 4 4 4 4 4 3 2 2 2 3 2 2 1 2 2 2 3 4 3 3 2 2 2 3 3 2 2 2 3 5 3
2 2 2 2 1 3 5 5 4 4 3 3 4 4 3 3 3 4 2 2 3 3 2 1 1 1 1 1 2 3 3 3 3 3 3 3 2 2 2 2 2 2 1
2 1 2 1 0 1 3 4 4 3 3 4 4 4 3 3 3 4 4 2 2 2 2 2 1 2 2 1 2 3 3 3 2 2 2 2 2 1 1 2 1 0 1
1 1 2 1 1 1 2 3 3 3 4 4 3 4 4 3 3 3 3 3 2 2 2 2 2 1 1 2 2 2 2 2 1 1 1 0 0 0 1 1 1 0 1
1 1 2 3 3 2 2 2 2 4 4 3 3 3 4 4 3 2 2 3 3 3 3 3 3 2 2 3 2 1 2 2 2 1 1 1 1 1 1 1 1 1 1
2 2 2 2 2 2 2 2 3 4 5 4 3 3 3 3 3 3 1 0 1 2 3 2 2 2 2 2 1 1 1 1 3 3 1 1 1 1 1 1 1 1 1
Wind_Direction
186 162 157 155 142 143 138 143 143 148 142 140 137 134 147 151 133 133 132 125 132 134 122 117 119 117 124 130 122 110 94 73 86 80 45 18 27 41 48 63 84 91 108
165 166 163 151 151 157 154 148 157 162 162 163 167 164 159 168 176 142 130 139 139 145 138 134 144 141 127 119 123 117 111 97 93 109 94 34 3 2 21 36 78 84 96
172 176 168 159 152 160 166 166 167 164 168 159 134 112 84 67 64 117 197 191 154 155 149 147 148 152 145 155 160 144 135 143 98 113 133 137 198 302 342 9 39 59 73
171 168 164 162 170 179 178 169 169 165 163 150 148 152 157 174 205 201 198 200 164 156 158 155 156 160 160 165 177 163 152 143 160 244 103 153 152 150 319 337 355 21 70
173 170 173 175 178 176 172 167 160 162 166 164 165 164 171 192 188 172 180 194 200 171 161 161 160 168 171 175 173 155 155 158 166 174 163 122 96 118 147 221 310 349 340
177 176 178 170 164 156 152 155 158 167 174 173 168 171 180 182 169 179 188 200 203 203 183 164 164 173 176 182 184 176 170 175 173 178 171 161 159 176 157 176 220 268 300
175 175 172 164 157 156 158 155 154 168 178 181 183 185 188 183 186 192 191 188 188 199 202 178 172 175 183 184 178 174 182 179 177 186 190 184 187 168 155 153 177 216 288
177 177 180 173 167 161 160 156 157 172 179 186 197 199 191 185 191 194 189 193 195 197 192 182 177 177 177 176 171 176 191 182 188 197 190 190 200 176 167 164 157 150 305
183 181 178 172 168 164 166 166 167 179 187 189 188 188 189 187 192 197 195 197 197 190 181 180 179 180 175 168 163 169 188 181 192 201 200 202 217 196 185 173 165 160 193
184 181 178 176 175 175 174 169 169 179 187 187 190 188 193 198 190 180 191 196 200 191 176 183 182 179 174 167 159 168 180 166 189 191 191 216 230 209 192 179 174 169 173
181 181 179 177 172 164 163 169 177 172 171 183 193 186 192 196 178 179 197 203 202 191 183 182 181 182 181 174 161 171 166 170 193 200 194 230 224 204 202 181 172 176 163
177 171 170 165 165 168 169 174 180 176 180 179 176 184 183 178 185 207 210 196 196 195 190 180 172 176 178 169 167 179 172 169 180 200 198 246 224 202 209 187 188 190 180
165 162 161 169 175 176 179 181 180 183 180 167 164 172 179 181 195 209 204 183 179 186 182 170 172 178 177 173 178 177 175 178 187 186 193 232 192 211 221 195 197 202 191
168 167 174 184 185 184 182 179 188 180 169 160 160 175 192 191 199 197 187 185 181 178 181 183 185 185 182 178 178 177 179 187 199 204 212 217 199 211 214 208 210 197 180
181 179 183 189 187 186 186 181 182 175 164 160 171 198 196 180 181 179 176 176 172 187 185 177 182 185 186 186 176 180 183 190 208 225 238 236 230 229 214 206 201 186 185
197 197 192 186 188 190 188 179 179 179 161 164 187 193 175 167 187 193 173 171 168 180 168 176 176 173 189 177 172 174 180 187 198 223 250 254 248 254 247 242 215 190 187
203 199 201 199 198 195 186 184 183 172 164 170 183 185 181 190 206 194 176 182 184 164 160 188 177 180 193 171 172 175 176 186 206 220 236 255 267 265 249 265 266 244 228
198 197 200 201 199 195 187 177 166 164 169 175 185 187 176 190 201 181 186 196 183 171 179 185 183 182 197 176 172 175 177 186 212 224 224 225 249 250 228 229 250 263 256
192 190 192 191 187 187 180 162 165 166 168 180 193 194 179 174 175 186 197 197 178 174 173 169 176 182 213 184 170 162 173 193 234 245 235 226 235 247 214 192 220 264 280
160 168 163 154 164 182 162 157 171 173 187 197 200 189 177 171 176 186 189 183 171 173 160 158 190 193 212 196 172 163 172 202 241 258 254 246 241 247 230 204 207 234 256
132 133 133 147 176 169 151 161 175 194 203 192 180 169 172 173 170 164 155 149 144 148 152 166 227 219 216 208 187 175 180 199 219 234 250 256 251 237 240 231 222 238 244
106 114 126 149 171 156 149 159 191 210 187 167 163 164 164 163 150 140 132 128 131 131 137 145 290 296 257 216 200 191 187 181 196 226 240 247 242 234 246 251 260 260 224
141 130 135 147 147 164 159 173 212 198 166 158 163 160 151 145 141 140 139 127 131 136 151 160 201 281 302 287 244 218 214 208 202 219 227 238 231 226 240 267 289 100 133
156 142 130 144 242 250 196 198 202 166 151 162 166 157 153 149 139 140 145 145 155 160 168 177 202 252 294 294 275 258 240 227 219 215 209 218 355 326 295 314 314 274 208
196 175 178 196 224 233 219 208 176 148 150 158 158 156 160 158 150 148 158 167 174 170 177 197 197 201 240 257 234 198 215 210 204 152 88 59 30 9 357 349 325 310 296
195 190 202 213 233 222 218 214 181 161 157 158 160 160 157 160 162 160 138 103 152 155 167 161 168 218 237 226 194 176 147 157 158 132 139 174 211 235 257 268 286 286 279
Height
1523 1525 1526 1527 1528 1530 1531 1532 1533 1534 1535 1536 1536 1536 1537 1537 1538 1539 1539 1539 1539 1539 1539 1539 1539 1539 1539 1539 1540 1540 1540 1540 1540 1541 1541 1542 1542 1543 1543 1543 1543 1543 1543
1522 1523 1525 1526 1527 1528 1530 1531 1532 1533 1534 1535 1535 1536 1536 1537 1537 1538 1538 1538 1539 1538 1538 1538 1538 1539 1539 1539 1539 1539 1540 1540 1540 1541 1541 1542 1544 1543 1543 1543 1543 1543 1543
1518 1521 1523 1524 1526 1527 1529 1530 1531 1532 1533 1534 1534 1535 1535 1536 1536 1536 1537 1537 1537 1538 1538 1538 1538 1538 1538 1538 1538 1539 1539 1540 1540 1541 1541 1541 1542 1542 1543 1543 1543 1542 1542
1517 1519 1520 1522 1524 1525 1527 1528 1529 1530 1532 1532 1533 1533 1533 1534 1534 1535 1535 1536 1536 1536 1536 1536 1537 1537 1537 1538 1538 1538 1539 1539 1539 1540 1540 1541 1541 1542 1542 1543 1543 1542 1542
1515 1516 1518 1520 1522 1524 1525 1526 1527 1528 1530 1531 1531 1532 1532 1532 1533 1533 1534 1534 1534 1535 1535 1535 1535 1536 1536 1536 1537 1537 1538 1538 1538 1539 1539 1540 1540 1541 1541 1541 1542 1542 1542
1513 1514 1516 1518 1520 1522 1523 1524 1525 1526 1527 1528 1529 1529 1530 1530 1530 1531 1531 1532 1532 1533 1533 1533 1533 1534 1534 1535 1535 1536 1536 1537 1537 1537 1538 1538 1539 1539 1539 1539 1540 1540 1540
1510 1512 1514 1516 1517 1519 1521 1522 1523 1524 1525 1526 1527 1527 1527 1528 1528 1528 1529 1529 1530 1530 1530 1531 1531 1532 1532 1533 1533 1534 1534 1535 1535 1535 1536 1537 1537 1538 1538 1538 1538 1538 1538
1508 1510 1511 1513 1515 1517 1518 1519 1520 1521 1522 1523 1524 1524 1525 1525 1525 1526 1526 1527 1527 1528 1528 1529 1529 1529 1530 1531 1531 1531 1532 1532 1533 1533 1534 1534 1535 1536 1536 1536 1536 1536 1537
1505 1507 1509 1511 1513 1514 1516 1517 1518 1519 1519 1520 1521 1521 1522 1522 1522 1523 1524 1524 1525 1525 1526 1526 1527 1527 1528 1528 1529 1529 1529 1530 1530 1531 1531 1532 1533 1533 1533 1534 1534 1535 1534
1503 1505 1507 1509 1510 1512 1513 1515 1516 1516 1517 1517 1518 1518 1519 1519 1519 1520 1520 1521 1522 1522 1523 1523 1524 1524 1525 1525 1526 1526 1527 1527 1528 1528 1529 1529 1530 1530 1531 1531 1532 1532 1533
1500 1502 1504 1506 1508 1509 1511 1512 1513 1513 1514 1514 1515 1516 1516 1516 1517 1517 1517 1518 1519 1519 1520 1520 1521 1521 1522 1522 1523 1523 1524 1524 1525 1525 1526 1526 1527 1527 1528 1528 1529 1529 1530
1499 1500 1502 1504 1506 1507 1508 1509 1510 1510 1511 1512 1512 1512 1513 1513 1513 1514 1514 1515 1516 1516 1517 1517 1518 1518 1519 1519 1520 1520 1521 1521 1522 1522 1523 1524 1524 1524 1525 1525 1526 1526 1527
1498 1499 1500 1502 1503 1504 1505 1506 1507 1508 1508 1509 1509 1509 1509 1510 1510 1510 1511 1512 1512 1513 1513 1514 1515 1515 1516 1516 1517 1517 1518 1519 1519 1520 1520 1521 1521 1521 1522 1522 1523 1523 1524
1496 1497 1498 1499 1501 1502 1503 1503 1504 1505 1506 1506 1506 1506 1506 1506 1507 1507 1508 1508 1509 1510 1510 1510 1511 1512 1512 1513 1514 1514 1515 1516 1516 1517 1517 1518 1518 1518 1519 1519 1520 1520 1521
1494 1495 1496 1497 1498 1499 1500 1501 1501 1502 1502 1503 1502 1503 1503 1504 1504 1504 1504 1505 1506 1506 1507 1507 1508 1509 1509 1510 1510 1511 1512 1513 1513 1513 1514 1514 1515 1515 1516 1516 1516 1517 1517
1492 1493 1493 1494 1495 1496 1496 1497 1498 1499 1499 1499 1499 1500 1500 1500 1501 1501 1501 1502 1502 1503 1503 1504 1504 1505 1506 1507 1507 1508 1509 1509 1510 1510 1510 1511 1511 1512 1512 1513 1513 1514 1514
1489 1490 1490 1491 1492 1492 1493 1494 1494 1495 1496 1496 1496 1496 1497 1497 1497 1498 1498 1499 1499 1500 1500 1500 1501 1501 1502 1503 1504 1505 1505 1506 1506 1507 1507 1507 1508 1508 1509 1509 1509 1510 1510
1486 1487 1487 1488 1489 1490 1490 1491 1492 1492 1493 1493 1493 1493 1494 1494 1494 1495 1495 1495 1496 1496 1497 1497 1498 1498 1499 1500 1501 1501 1502 1503 1503 1503 1503 1504 1504 1504 1505 1505 1505 1505 1505
1484 1484 1485 1486 1486 1487 1488 1488 1489 1489 1490 1490 1490 1491 1491 1491 1491 1492 1492 1492 1493 1493 1494 1494 1495 1495 1496 1497 1497 1498 1499 1499 1500 1500 1500 1500 1500 1501 1501 1501 1501 1501 1501
1483 1483 1483 1484 1485 1485 1486 1486 1486 1487 1487 1487 1487 1488 1488 1488 1489 1489 1489 1489 1490 1490 1491 1491 1492 1493 1493 1494 1494 1495 1495 1495 1496 1496 1497 1497 1497 1497 1498 1498 1497 1497 1497
1481 1481 1481 1482 1482 1483 1483 1483 1484 1484 1484 1485 1485 1485 1486 1486 1486 1487 1487 1487 1487 1487 1488 1488 1489 1490 1490 1491 1491 1492 1492 1492 1492 1492 1493 1493 1494 1494 1494 1494 1494 1493 1494
1479 1479 1479 1480 1480 1481 1481 1481 1481 1482 1482 1482 1483 1483 1483 1484 1484 1484 1484 1485 1485 1485 1485 1485 1486 1487 1487 1488 1488 1488 1489 1489 1489 1489 1489 1490 1490 1490 1490 1490 1490 1490 1490
1478 1478 1478 1478 1478 1478 1479 1478 1479 1480 1480 1480 1480 1480 1481 1481 1482 1482 1482 1482 1482 1482 1482 1483 1483 1483 1484 1484 1485 1485 1485 1486 1486 1486 1486 1486 1487 1487 1486 1487 1486 1486 1486
1476 1476 1476 1476 1476 1476 1476 1477 1477 1477 1477 1477 1477 1478 1478 1479 1479 1479 1479 1480 1479 1479 1480 1480 1480 1480 1481 1481 1481 1481 1482 1482 1483 1483 1483 1483 1483 1483 1483 1483 1483 1482 1482
1474 1474 1474 1474 1474 1474 1474 1474 1474 1475 1475 1475 1475 1476 1476 1476 1477 1477 1477 1477 1477 1477 1478 1477 1477 1477 1477 1478 1478 1478 1478 1478 1479 1479 1479 1479 1479 1479 1479 1479 1479 1479 1479
1472 1472 1471 1471 1471 1471 1471 1471 1471 1472 1472 1472 1472 1473 1473 1474 1474 1474 1475 1475 1476 1476 1476 1476 1475 1475 1475 1475 1475 1475 1475 1475 1476 1476 1475 1475 1476 1476 1475 1476 1475 1475 1475